Wind_Speed
19 20 20 20 22 23 23 23 22 21 20 19 19 17 16 16 15 15 15 14 14 15 15 14 14 14 14 14 13 12 11 9 8 7 6 5 5 4 4 5 6 7 9 11
21 21 20 20 21 22 22 23 24 22 21 21 20 20 19 18 18 18 18 17 16 16 16 16 16 15 15 14 13 12 11 10 9 8 7 7 7 7 8 9 10 11 12 14
23 20 19 21 21 21 21 21 22 22 22 22 22 22 22 22 20 20 19 19 18 17 17 16 16 15 14 13 13 12 10 10 9 8 8 8 9 10 11 12 13 14 15 17
23 21 20 19 18 18 18 19 20 20 20 20 20 21 21 22 21 20 19 19 18 17 17 16 16 15 15 14 14 13 12 11 10 10 10 10 11 11 12 14 15 16 18 19
25 21 18 16 16 16 17 17 18 19 19 19 18 19 20 20 19 19 18 18 18 17 16 16 16 16 16 16 15 15 14 14 13 13 12 12 12 13 14 14 15 16 17 18
26 23 19 16 14 14 14 15 16 17 17 17 17 19 20 19 19 18 18 18 18 17 17 17 17 17 17 17 17 17 17 16 16 15 15 15 15 15 15 15 15 16 17 17
27 24 22 18 15 13 13 14 14 14 15 15 16 17 18 18 18 18 18 18 18 18 18 18 18 18 18 19 19 19 19 19 19 19 19 18 18 18 17 16 16 16 16 16
26 25 22 20 16 14 13 12 13 13 13 13 14 15 16 16 17 17 16 17 17 18 18 18 18 18 19 19 19 19 20 20 21 21 21 21 21 21 20 18 17 16 16 15
25 24 23 22 18 15 13 12 12 12 12 12 13 14 14 15 15 15 15 16 16 17 17 17 18 18 18 18 18 19 19 20 21 22 22 22 22 22 21 21 19 18 17 15
22 23 22 22 20 17 14 12 12 11 11 11 11 12 12 13 13 13 14 14 15 15 16 16 17 17 17 17 18 18 19 20 22 23 23 24 23 22 22 22 21 19 18 16
18 20 21 20 20 18 16 13 12 11 10 10 10 10 10 11 11 12 12 12 13 13 14 15 16 17 17 17 17 18 19 20 22 23 24 25 25 24 23 23 23 22 21 19
14 16 18 18 18 18 17 15 13 11 10 10 9 8 8 8 9 10 10 10 11 12 13 14 15 16 17 17 18 19 20 21 22 23 24 25 26 25 24 24 25 25 24 23
11 13 14 15 16 16 16 15 14 12 11 10 9 8 7 7 7 7 8 8 10 11 12 14 15 16 17 17 17 18 19 20 21 22 22 24 25 25 25 25 25 26 26 26
9 10 11 12 13 14 14 14 13 13 11 10 9 8 7 6 6 6 7 7 8 9 11 13 14 15 16 16 17 18 19 20 21 21 21 22 23 24 24 25 25 25 26 26
9 9 9 9 10 11 12 13 13 12 11 10 10 9 8 7 6 6 6 6 7 8 10 11 13 14 15 15 16 17 18 20 20 20 20 20 20 21 22 23 23 23 24 24
10 9 9 9 8 9 10 11 11 12 11 10 9 9 9 8 7 6 6 6 7 7 8 10 11 12 13 14 15 16 17 19 20 20 19 19 18 19 19 20 20 21 21 21
11 10 10 10 9 9 9 9 9 10 10 10 9 9 9 8 7 7 7 7 7 7 8 9 10 10 11 12 12 14 15 17 19 19 19 18 17 17 17 18 18 18 18 18
13 13 12 12 11 10 10 9 8 8 9 9 9 9 9 9 9 8 8 8 8 8 8 8 9 9 9 10 10 11 12 15 17 18 18 18 17 16 16 16 16 16 16 16
16 16 15 14 13 13 12 11 11 10 9 9 9 9 9 9 9 9 9 9 9 10 10 9 9 8 8 8 9 10 11 12 14 16 17 17 17 16 16 16 15 15 15 14
21 20 18 17 16 16 15 14 14 13 12 11 10 10 10 10 10 10 10 10 10 11 11 10 9 9 8 8 8 8 9 10 12 14 15 16 16 16 15 15 15 15 14 13
26 24 23 21 20 19 19 18 17 16 16 15 13 12 11 11 11 10 10 10 10 11 11 11 11 10 9 8 8 7 8 8 9 11 13 14 15 15 14 14 14 14 13 13
31 29 28 26 25 24 23 22 21 20 19 18 17 16 15 14 13 12 12 11 11 11 12 12 12 11 11 9 8 8 8 8 8 8 10 11 13 14 13 13 13 13 12 12
36 34 33 31 30 28 27 26 25 24 23 22 21 20 19 18 17 16 15 14 13 12 12 12 12 12 11 11 10 10 9 8 8 8 8 9 10 12 12 12 12 12 11 11
42 40 38 37 35 33 32 31 30 28 27 26 25 24 23 22 22 20 19 17 16 15 14 13 13 12 12 12 12 12 12 11 10 9 9 9 9 10 10 11 11 10 10 9
47 45 44 42 41 39 37 36 35 32 31 30 29 28 27 26 26 25 24 22 20 19 17 15 14 14 14 14 14 14 14 14 13 12 11 10 10 10 10 10 10 10 9 8
53 51 49 48 46 45 43 41 39 37 36 35 34 32 31 30 29 29 28 27 25 24 22 20 18 17 16 16 16 16 16 16 16 15 14 13 12 11 11 10 10 10 9 9
56 55 54 52 51 50 48 46 44 42 40 39 38 37 35 34 33 32 31 30 29 28 27 25 23 21 19 18 17 17 18 18 19 19 18 17 16 14 13 12 12 11 11 10
Wind_Direction
19 20 20 25 30 33 36 38 41 44 44 43 46 52 56 61 61 53 52 54 52 50 52 54 55 55 52 49 48 49 47 43 43 42 36 27 11 353 333 314 296 283 275 274
25 25 24 30 34 35 38 40 44 46 48 47 51 55 54 53 53 52 51 52 51 51 53 54 53 51 49 46 44 42 37 31 25 17 9 355 339 325 313 302 294 289 284 280
26 27 30 35 35 38 42 44 46 48 51 52 54 56 58 59 58 56 55 54 53 55 54 52 49 46 43 40 38 35 29 23 15 5 354 341 328 317 308 300 294 290 286 284
27 29 33 32 34 38 41 44 47 48 50 52 53 56 59 58 56 54 53 52 49 47 46 46 44 42 40 38 35 31 27 22 15 6 356 345 334 325 316 307 299 292 288 285
29 31 33 31 33 36 39 43 46 47 49 52 55 57 56 54 52 50 49 48 46 45 44 44 44 43 41 39 38 36 33 28 22 15 6 355 344 335 326 318 310 303 297 292
30 31 31 30 31 33 36 43 44 45 46 50 52 53 52 51 50 49 49 49 48 47 47 48 48 46 44 43 42 39 36 32 28 22 16 9 1 352 342 333 324 316 307 300
28 30 31 30 29 31 36 40 43 44 45 46 48 50 50 50 49 50 51 51 49 49 51 51 51 49 47 45 43 40 37 34 30 25 20 14 8 1 354 347 338 330 320 311
26 28 28 27 28 30 34 35 39 41 41 43 47 48 48 48 48 49 51 52 52 53 54 53 51 50 48 46 43 40 36 31 27 22 18 12 9 6 2 357 350 343 334 326
25 26 26 27 27 29 31 31 33 36 37 40 43 46 47 48 48 50 52 53 53 53 52 51 50 48 45 42 39 35 31 27 23 20 17 14 13 11 10 7 4 359 353 348
23 23 24 26 27 28 30 31 31 31 33 35 39 42 45 46 47 49 52 53 52 51 50 48 46 42 40 37 34 30 27 24 22 20 19 18 17 16 16 17 19 18 16 16
17 21 24 26 27 28 29 30 30 28 27 29 35 40 44 45 46 48 51 50 49 47 44 42 38 34 32 30 28 26 25 24 22 22 22 22 22 23 24 27 28 30 30 32
9 15 20 24 26 27 29 29 29 28 26 26 29 35 40 42 42 43 46 45 43 40 37 34 31 28 26 25 25 25 24 23 22 23 24 26 27 29 32 34 35 37 39 41
356 5 12 18 22 24 27 28 29 29 28 26 24 26 29 33 34 34 35 35 33 31 30 28 26 24 22 22 23 23 23 22 22 24 27 29 31 34 36 38 39 40 41 44
336 347 358 6 12 17 21 24 24 25 26 26 23 19 19 20 19 19 19 21 21 20 20 20 20 20 20 20 21 22 22 23 23 25 27 29 32 34 36 38 40 41 43 45
316 324 335 346 356 6 13 17 20 20 19 18 17 14 10 5 1 358 359 2 4 6 8 10 12 14 16 18 19 21 22 23 24 25 26 28 31 33 35 37 39 41 43 45
305 308 312 320 328 342 357 8 13 15 14 11 7 6 4 360 351 343 338 341 346 350 355 359 3 6 10 13 15 18 19 20 22 24 24 26 28 31 32 35 37 40 42 44
295 298 301 303 306 311 324 341 356 4 7 8 5 2 360 357 350 340 331 328 330 332 338 345 352 357 2 6 9 12 14 15 18 20 22 24 26 28 30 31 33 36 37 40
287 290 292 293 293 296 299 306 320 337 348 353 354 355 354 353 349 341 330 326 325 324 326 330 337 342 348 354 358 2 5 9 12 15 18 21 23 25 27 28 30 32 34 35
283 284 285 285 285 286 288 290 294 302 315 328 336 339 340 341 341 338 331 324 320 316 315 317 320 326 332 336 343 348 354 360 5 10 13 17 20 23 24 25 26 28 30 31
280 281 282 281 279 279 280 282 284 286 291 298 307 317 324 326 327 330 330 325 322 318 314 311 309 311 314 317 322 331 339 348 356 2 7 11 14 18 21 23 24 25 26 27
277 278 279 279 278 276 275 275 278 280 281 283 287 293 300 308 313 315 318 319 320 320 318 314 308 302 302 302 303 311 321 331 341 352 359 5 9 13 17 19 21 21 23 24
272 274 275 276 276 275 273 272 272 274 276 277 279 281 284 288 294 299 302 305 311 314 315 314 307 300 294 289 286 292 301 310 320 334 346 355 2 7 11 15 17 18 19 20
267 269 271 273 273 273 272 271 269 269 270 272 273 275 276 277 280 284 287 290 294 301 307 311 309 302 291 282 280 281 284 289 298 310 324 336 346 353 1 7 10 13 14 15
262 264 266 268 269 270 269 268 267 267 266 267 268 270 271 271 272 274 276 279 282 287 292 297 301 299 292 284 279 275 273 275 280 287 299 311 323 333 341 349 357 2 5 7
260 261 262 264 265 266 266 266 266 265 264 264 264 265 266 267 268 268 269 270 272 275 278 282 287 290 289 285 281 276 271 269 270 273 280 289 298 308 317 326 334 342 349 352
258 259 260 260 261 262 263 263 263 263 262 261 261 261 262 263 264 265 265 265 266 267 269 271 273 277 281 282 280 277 273 269 266 267 269 274 280 287 294 301 309 316 323 328
257 258 259 259 259 259 260 260 260 260 259 259 258 259 259 259 260 261 262 262 263 263 264 264 265 267 269 273 277 277 274 271 268 265 264 266 269 273 277 282 288 293 299 303
Height
5842 5838 5834 5829 5825 5821 5817 5813 5809 5806 5803 5801 5798 5795 5793 5792 5791 5791 5790 5789 5789 5788 5788 5787 5786 5785 5785 5785 5784 5783 5783 5782 5782 5781 5781 5781 5781 5781 5781 5781 5781 5782 5782 5782
5844 5840 5836 5832 5828 5824 5821 5817 5814 5811 5809 5806 5803 5801 5799 5797 5796 5796 5794 5793 5793 5792 5791 5790 5789 5789 5788 5787 5787 5786 5785 5784 5783 5783 5782 5782 5781 5781 5781 5780 5780 5779 5779 5778
5846 5842 5839 5835 5832 5828 5825 5822 5819 5816 5814 5811 5808 5806 5804 5802 5801 5800 5799 5798 5797 5795 5794 5793 5792 5791 5791 5789 5788 5787 5786 5785 5784 5783 5782 5781 5780 5779 5778 5777 5776 5775 5774 5773
5849 5845 5841 5841 5835 5833 5830 5827 5824 5821 5819 5816 5814 5812 5809 5808 5806 5805 5804 5802 5800 5799 5798 5796 5795 5794 5793 5791 5790 5788 5787 5786 5784 5783 5781 5780 5778 5777 5775 5773 5772 5770 5769 5767
5852 5848 5845 5842 5839 5836 5834 5831 5828 5826 5823 5821 5819 5816 5814 5812 5811 5809 5808 5806 5804 5803 5801 5799 5798 5797 5795 5794 5792 5790 5788 5786 5784 5782 5781 5779 5776 5774 5772 5770 5767 5765 5763 5761
5855 5851 5848 5846 5842 5840 5838 5835 5832 5830 5828 5826 5824 5821 5820 5817 5815 5813 5812 5810 5808 5806 5805 5803 5801 5800 5798 5796 5794 5792 5790 5788 5785 5783 5781 5778 5775 5772 5769 5766 5763 5760 5758 5755
5859 5855 5851 5848 5845 5843 5842 5840 5836 5834 5832 5830 5828 5826 5824 5822 5820 5818 5816 5814 5812 5810 5808 5807 5805 5803 5801 5799 5797 5794 5792 5790 5787 5784 5781 5778 5775 5771 5767 5763 5760 5757 5753 5750
5863 5859 5857 5851 5848 5846 5845 5841 5839 5837 5836 5834 5832 5830 5828 5826 5824 5822 5820 5819 5816 5814 5813 5811 5809 5807 5805 5803 5800 5798 5795 5792 5789 5786 5783 5779 5774 5770 5766 5761 5757 5753 5749 5746
5868 5865 5860 5855 5852 5849 5846 5844 5842 5840 5839 5837 5835 5834 5832 5830 5828 5827 5825 5823 5821 5819 5817 5815 5813 5811 5808 5806 5803 5801 5798 5795 5792 5788 5784 5780 5775 5771 5766 5761 5756 5751 5746 5742
5870 5867 5863 5859 5855 5852 5849 5847 5845 5843 5841 5840 5838 5837 5835 5834 5832 5830 5829 5827 5825 5823 5821 5819 5817 5815 5812 5809 5807 5804 5801 5798 5794 5790 5786 5781 5777 5772 5767 5762 5757 5752 5747 5742
5873 5869 5865 5862 5858 5855 5852 5849 5847 5845 5844 5842 5840 5839 5838 5837 5835 5834 5832 5831 5829 5827 5825 5823 5821 5818 5815 5813 5810 5807 5804 5800 5797 5793 5789 5784 5779 5774 5769 5764 5759 5754 5750 5745
5874 5871 5868 5865 5862 5858 5855 5852 5850 5848 5846 5844 5843 5841 5840 5839 5838 5837 5835 5834 5832 5830 5828 5826 5824 5821 5818 5815 5812 5809 5806 5803 5799 5795 5791 5787 5782 5777 5772 5768 5763 5759 5754 5750
5874 5871 5869 5866 5864 5861 5858 5855 5852 5850 5848 5846 5845 5843 5842 5841 5840 5838 5837 5836 5834 5833 5831 5829 5826 5823 5821 5818 5815 5812 5809 5805 5802 5798 5795 5790 5786 5781 5777 5773 5768 5764 5760 5755
5872 5871 5869 5867 5865 5862 5860 5857 5854 5852 5850 5848 5846 5845 5843 5842 5841 5840 5838 5837 5836 5834 5832 5830 5828 5826 5823 5820 5817 5814 5811 5808 5805 5801 5798 5794 5790 5786 5782 5778 5774 5770 5766 5762
5871 5870 5868 5867 5865 5863 5861 5859 5856 5854 5851 5849 5847 5846 5844 5843 5841 5840 5839 5838 5836 5835 5833 5832 5830 5827 5825 5822 5820 5817 5814 5811 5808 5804 5801 5798 5794 5790 5787 5783 5779 5776 5772 5768
5869 5868 5867 5865 5864 5863 5861 5859 5857 5855 5853 5850 5848 5846 5845 5843 5842 5840 5839 5838 5837 5835 5834 5832 5831 5829 5826 5824 5822 5819 5817 5814 5811 5807 5804 5801 5798 5795 5791 5788 5785 5781 5778 5775
5866 5865 5864 5863 5862 5861 5860 5859 5857 5855 5853 5851 5849 5847 5845 5843 5842 5840 5839 5837 5836 5835 5834 5832 5831 5829 5827 5825 5823 5821 5819 5816 5813 5810 5807 5804 5801 5798 5795 5792 5789 5786 5783 5780
5862 5862 5861 5860 5859 5859 5858 5857 5856 5855 5853 5851 5849 5847 5845 5843 5842 5840 5838 5837 5835 5834 5833 5831 5830 5829 5827 5825 5824 5822 5820 5818 5816 5813 5810 5807 5804 5801 5798 5796 5793 5790 5788 5785
5858 5858 5857 5857 5856 5855 5855 5854 5853 5852 5851 5850 5849 5847 5845 5843 5841 5839 5837 5836 5834 5833 5832 5830 5829 5828 5826 5825 5823 5822 5821 5819 5817 5815 5812 5809 5806 5804 5801 5799 5796 5794 5791 5789
5852 5852 5852 5852 5852 5851 5851 5850 5850 5849 5848 5848 5847 5845 5844 5842 5840 5838 5836 5835 5833 5831 5830 5828 5827 5826 5825 5824 5822 5821 5820 5819 5818 5816 5814 5811 5809 5806 5804 5801 5799 5796 5794 5792
5845 5846 5846 5846 5846 5846 5846 5846 5845 5845 5844 5844 5843 5842 5841 5840 5839 5837 5835 5833 5832 5830 5828 5827 5825 5824 5823 5822 5821 5820 5819 5818 5817 5816 5814 5812 5810 5808 5805 5803 5801 5799 5797 5795
5837 5838 5839 5839 5840 5840 5840 5840 5840 5840 5839 5839 5838 5838 5837 5837 5836 5834 5833 5832 5830 5828 5826 5824 5823 5822 5821 5820 5819 5818 5818 5817 5816 5815 5814 5813 5811 5809 5807 5805 5803 5801 5799 5797
5827 5828 5829 5830 5831 5832 5832 5833 5833 5833 5833 5833 5833 5832 5832 5832 5831 5831 5830 5829 5827 5825 5824 5822 5820 5819 5818 5817 5817 5816 5816 5815 5814 5814 5813 5812 5811 5810 5808 5806 5804 5802 5800 5799
5815 5817 5819 5820 5821 5822 5823 5824 5824 5825 5826 5826 5826 5825 5825 5825 5825 5825 5824 5824 5823 5822 5821 5819 5818 5816 5815 5815 5814 5814 5813 5813 5812 5811 5811 5810 5809 5809 5808 5806 5805 5803 5801 5800
5801 5804 5806 5808 5809 5811 5812 5813 5814 5816 5816 5817 5817 5817 5818 5818 5818 5818 5818 5818 5817 5817 5816 5815 5814 5813 5812 5811 5811 5810 5810 5809 5809 5808 5808 5808 5807 5806 5806 5805 5804 5803 5801 5800
5786 5789 5791 5794 5796 5797 5799 5801 5802 5804 5805 5806 5807 5808 5809 5809 5809 5809 5810 5810 5810 5811 5810 5810 5810 5809 5808 5807 5806 5806 5805 5805 5805 5805 5804 5804 5804 5803 5803 5802 5802 5801 5800 5799
5769 5772 5775 5778 5780 5782 5785 5787 5789 5791 5793 5794 5796 5797 5798 5799 5799 5800 5800 5801 5802 5802 5803 5803 5803 5803 5803 5802 5801 5801 5800 5800 5800 5800 5800 5800 5800 5799 5799 5799 5799 5798 5798 5797